Regional Weather Roundup
Issued by NWS Sterling, VA

Home | Current Version | Previous Version | Text Only | Print | Product List | Glossary Off
Versions: 1 2 3 4 5 6 7 8 9 10 11 12 13 14 15 16 17 18 19 20 21 22 23 24 25 26 27 28

000
ASUS41 KLWX 231310
RWRLWX

REGIONAL WEATHER ROUNDUP
NATIONAL WEATHER SERVICE BALTIMORE MD/WASHINGTON DC
900 AM EDT THU OCT 23 2014

Note: "FAIR" indicates few or no clouds below 12,000 feet
with no significant weather and/or obstructions to visibility.
 TC=TEMPERATURE CELSIUS

 * =Non NWS site. Station does not report precipitation (e.g. rain,
    snow, etc.), thunder, or fog.

DCZ001-MDZ009-015-VAZ040>042-051-053>054-231400-
WASHINGTON METRO

CITY           SKY/WX    TMP DP  RH WIND       PRES   REMARKS
WASHINGTON NAT CLOUDY    56  42  59 NW17G25   29.91R
DULLES         PTSUNNY   52  42  69 NW18G24   29.92S
ANDREWS AFB    CLOUDY    53  43  69 NW18G24   29.88S
FT BELVOIR     CLOUDY    54  42  64 NW21G26   29.92R
QUANTICO       PTSUNNY   54  41  61 NW17G26   29.93S
COLLEGE PARK*  CLOUDY    54  43  66 NW9       29.89S
LEESBURG*      MOSUNNY   54  45  71 NW16G31   29.94S
GAITHERSBURG*  CLOUDY    52  43  71 NW14G22   29.93S

$$

MDZ006>007-011-014-231400-
BALTIMORE METRO

CITY           SKY/WX    TMP DP  RH WIND       PRES   REMARKS
BWI AIRPORT    PTSUNNY   54  43  66 W12G17    29.86R
MD SCIENCE CTR   N/A     56  43  61 MISG      29.86R
MARTIN STATE   PTSUNNY   55  46  71 W16G25    29.85S
ANNAPOLIS      PTSUNNY   55  44  66 NW10      29.85S
FORT MEADE*    CLOUDY    52  43  71 W9G17     29.90R

$$

MDZ012-015-019>023-231400-
MARYLAND EASTERN SHORE

CITY           SKY/WX    TMP DP  RH WIND       PRES   REMARKS
OCEAN CITY     CLOUDY    53  46  77 NW12G22   29.78S
SALISBURY      CLOUDY    56  45  66 NW12G20   29.81R
BAY BRIDGE AP*   N/A     54  43  66 NW17G24   29.85S
CAMBRIDGE*     CLOUDY    55  45  67 NW13G21   29.83S VSB<1/4
EASTON*        CLOUDY    55  46  71 NW16G23   29.87R

$$

MDZ017>025-231400-
SOUTHERN MARYLAND

CITY           SKY/WX    TMP DP  RH WIND       PRES   REMARKS
PATUXENT RIVER CLOUDY    54  43  66 NW18G24   29.87R
ST INIGOES     CLOUDY    54  42  64 NW13G21   29.87R
LEONARDTOWN*   CLOUDY    52  41  66 W12G20    29.89S

$$

MDZ003>005-231400-
NORTH CENTRAL MARYLAND

CITY           SKY/WX    TMP DP  RH WIND       PRES   REMARKS
FREDERICK*     PTSUNNY   57  45  62 NW9       29.95S
HAGERSTOWN APT SUNNY     52  41  66 NW20G26   29.94R
WESTMINSTER*   CLOUDY    52  45  76 NW10G16   29.89R

$$

MDZ501>502-231400-
WESTERN MARYLAND

CITY           SKY/WX    TMP DP  RH WIND       PRES   REMARKS
OAKLAND*       FOG       37 N/A N/A NW9       30.07S VSB<1/4
CUMBERLAND*    CLOUDY    52  41  66 NW15G21   30.08R

$$

VAZ025>031-231400-
SHENANDOAH VALLEY

CITY           SKY/WX    TMP DP  RH WIND       PRES   REMARKS
WINCHESTER*    PTSUNNY   54  37  54 NW20G28   29.97S
FRONT ROYAL*   CLOUDY    52  41  66 NW12G17   29.99S
LURAY*         FAIR      55  43  62 NW10G20   30.01R
NEW MARKET*    FAIR      50  40  68 NW7       30.03S
STAUNTON*      SUNNY     51  40  64 NW7       30.03S
WAYNESBORO*    FAIR      48  38  68 CALM      30.01R

$$

WVZ021-048>050-054>055-231400-
EASTERN WEST VIRGINIA PANHANDLE

CITY           SKY/WX    TMP DP  RH WIND       PRES   REMARKS
MARTINSBURG    SUNNY     52  39  61 NW18G26   29.96S
PETERSBURG*    PTSUNNY   50  40  67 NW9       30.08S

$$

VAZ036>039-050-231400-
CENTRAL FOOTHILLS

CITY           SKY/WX    TMP DP  RH WIND       PRES   REMARKS
CHARLOTTESVILL MOSUNNY   53  40  61 NW6       29.99R
CULPEPER*      CLOUDY    55  43  62 NW9       29.95S
ORANGE*        CLOUDY    54  43  66 SW7       29.98R
GORDONSVILLE*  CLOUDY    53  40  62 W7        29.97R
WARRENTON*     CLOUDY    55  47  76 NW14      29.95R

$$

VAZ055>057-231400-
NORTH AND CENTRAL PIEDMONT

CITY           SKY/WX    TMP DP  RH WIND       PRES   REMARKS
FREDERICKSBRG* CLOUDY    55  44  64 NW14G23   29.93R
STAFFORD*      CLOUDY    53  41  64 NW12G22   29.97S

$$

NCZ024-NYZ072-PAZ021-071-VAZ022-071-231400-
OTHER REGIONAL OBSERVATIONS

CITY           SKY/WX    TMP DP  RH WIND       PRES   REMARKS
NEW YORK CITY  LGT RAIN  50  47  89 N8        29.73S FOG
PHILADELPHIA   LGT RAIN  51  46  83 NW18      29.78R
PITTSBURGH     MOSUNNY   46  42  86 NW8       30.14R
ROANOKE        MOSUNNY   51  38  60 NW18G25   30.10R
RICHMOND       PTSUNNY   54  41  61 NW14      29.94F
RALEIGH        SUNNY     51  40  65 NW5       30.02S

$$

ANZ530>537-231400-
MARINE OBSERVATIONS

STATION/POSITION TIME  TEMP    WIND        PRES
                       AIR SEA DIR/SP/G
                 (UTC) (F)     (DEG/KT/KT) (MB)
THOMAS PT LIGHT  1300   54 61  310/ 19/ 23 1011.6S
BALT KEY BRIDGE  1300   56     300/ 20/ 25 1010.4F
COVE POINT       1300   54     320/ 18/ 24 1010.8R
LEWISETTA        1300   55 59  320/ 16/ 21 1011.6R
SOLOMONS ISLAND  1300      63                N/A
PINEY POINT      1300          330/ 28/ 31   N/A

$$




USA.gov is the U.S. government's official web portal to all federal, state and local government web resources and services.